Weather History for Imperial, CA

Change the Weather History Date:

Monday, December 24, 2012

  Actual Average Record
Temperature  
Mean Temperature 62 °F -  
Max Temperature 73 °F 67 °F 85 °F (1964)
Min Temperature 48 °F 39 °F 28 °F (1953)
Degree Days  
Heating Degree Days 4    
Growing Degree Days 12 (Base 50)    
Moisture  
Dew Point 43 °F    
Average Humidity 51    
Maximum Humidity 69    
Minimum Humidity 34    
Precipitation  
Precipitation 0.00 in - - ()
Sea Level Pressure  
Sea Level Pressure 29.97 in    
Wind  
Wind Speed 12 mph (West)    
Max Wind Speed 20 mph    
Max Gust Speed 28 mph    
Visibility 9 miles    
Events      
Averages and records for this station are not official NWS values.
T = Trace of Precipitation, MM = Missing Value Source: NWS Daily Summary

Daily Weather History Graph

Daily Weather History Graph

Search for Another Location

Airport:

Trip Planner

Search our weather history database for the weather conditions in past years. The results will help you decide how hot, cold, wet, or windy it might be!

Date:

Astronomy

Dec. 24, 2012 Rise Set
Actual Time 6:42 AM PST 4:42 PM PST
Civil Twilight 6:15 AM PST 5:09 PM PST
Nautical Twilight 5:44 AM PST 5:40 PM PST
Astronomical Twilight 5:14 AM PST 6:10 PM PST
Moon 2:08 PM PST (12/24) 3:28 AM PST (12/24)
Length of Visible Light 10h 54m
Length of Day
9h 59m
Waxing Gibbous, 89% of the Moon is Illuminated
Dec 24
Waxing Gibbous
Dec 28
Full
Jan 4
Last Quarter
Jan 11
New
Jan 18
First Quarter

Hourly Weather History & Observations

Time (PST) Temp. Dew Point Humidity Pressure Visibility Wind Dir Wind Speed Gust Speed Precip Events Conditions
12:53 AM 55.9 °F 39.9 °F 55% 30.03 in 10.0 mi WSW 15.0 mph - N/A   Clear
1:53 AM 57.0 °F 42.1 °F 57% 30.00 in 10.0 mi WSW 15.0 mph - N/A   Clear
2:53 AM 57.9 °F 41.0 °F 53% 30.00 in 10.0 mi West 12.7 mph - N/A   Clear
3:53 AM 57.0 °F 41.0 °F 55% 30.00 in 10.0 mi West 10.4 mph - N/A   Clear
4:53 AM 55.9 °F 41.0 °F 57% 30.00 in 10.0 mi NW 3.5 mph - N/A   Clear
5:53 AM 54.0 °F 42.1 °F 64% 30.01 in 10.0 mi NW 3.5 mph - N/A   Clear
6:53 AM 55.0 °F 43.0 °F 64% 30.01 in 10.0 mi WSW 4.6 mph - N/A   Clear
7:53 AM 60.1 °F 45.0 °F 57% 30.01 in 10.0 mi WSW 16.1 mph 23.0 mph N/A   Clear
8:53 AM 64.0 °F 46.9 °F 54% 30.01 in 10.0 mi WSW 18.4 mph 23.0 mph N/A   Clear
9:53 AM 66.9 °F 48.0 °F 51% 30.01 in 10.0 mi WSW 16.1 mph - N/A   Clear
10:53 AM 71.1 °F 48.0 °F 44% 29.98 in 10.0 mi WSW 17.3 mph - N/A   Clear
11:53 AM 73.0 °F 48.9 °F 42% 29.95 in 10.0 mi West 13.8 mph 21.9 mph N/A   Clear
12:53 PM 73.0 °F 50.0 °F 44% 29.91 in 10.0 mi West 18.4 mph 26.5 mph N/A   Partly Cloudy
1:45 PM 73.4 °F 44.6 °F 36% 29.90 in 4.0 mi NW 16.1 mph 25.3 mph N/A   Haze
1:53 PM 73.0 °F 43.0 °F 34% 29.90 in 2.5 mi WNW 17.3 mph 25.3 mph N/A   Haze
2:06 PM 71.6 °F 42.8 °F 35% 29.89 in 5.0 mi WNW 19.6 mph 27.6 mph N/A   Haze
2:53 PM 72.0 °F 42.1 °F 34% 29.89 in 10.0 mi NW 13.8 mph 20.7 mph N/A   Clear
3:53 PM 70.0 °F 41.0 °F 35% 29.88 in 10.0 mi NW 10.4 mph - N/A   Clear
4:53 PM 64.9 °F 43.0 °F 45% 29.89 in 10.0 mi WSW 11.5 mph - N/A   Clear
5:53 PM 60.1 °F 41.0 °F 49% 29.91 in 10.0 mi West 11.5 mph - N/A   Clear
6:53 PM 57.0 °F 41.0 °F 55% 29.94 in 10.0 mi West 9.2 mph - N/A   Clear
7:53 PM 54.0 °F 39.9 °F 59% 29.96 in 10.0 mi West 9.2 mph - N/A   Clear
8:53 PM 53.1 °F 39.9 °F 61% 29.98 in 10.0 mi West 8.1 mph - N/A   Clear
9:53 PM 53.1 °F 39.0 °F 59% 30.00 in 10.0 mi West 6.9 mph - N/A   Clear
10:53 PM 50.0 °F 39.0 °F 66% 30.04 in 10.0 mi West 6.9 mph - N/A   Clear
11:53 PM 48.9 °F 39.0 °F 69% 30.05 in 10.0 mi Calm Calm - N/A   Clear